Time,TemperatureF,DewpointF,PressureIn,WindDirection,WindDirectionDegrees,WindSpeedMPH,WindSpeedGustMPH,Humidity,HourlyPrecipIn,Conditions,Clouds,dailyrainin,SoftwareType,DateUTC
2013-02-16 00:02:00,31.0,28.0,29.96,NW,326,30.0,41.0,89,0.00,,,0.00,,2013-02-16 05:02:00,
2013-02-16 00:12:00,31.0,28.0,29.96,NW,326,30.0,41.0,89,0.00,,,0.00,,2013-02-16 05:12:00,
2013-02-16 00:22:00,30.0,26.0,29.95,NNW,340,31.0,41.0,84,0.00,,,0.00,,2013-02-16 05:22:00,
2013-02-16 00:32:00,31.0,26.0,29.95,NW,326,31.0,41.0,80,0.00,,,0.00,,2013-02-16 05:32:00,
2013-02-16 00:42:00,31.0,26.0,29.95,NW,326,31.0,41.0,80,0.00,,,0.00,,2013-02-16 05:42:00,
2013-02-16 00:52:00,30.0,25.0,29.95,NNW,331,26.0,36.0,82,0.00,,,0.00,,2013-02-16 05:52:00,
2013-02-16 01:02:00,29.0,25.0,29.94,NNW,338,26.0,37.0,83,0.00,,,0.00,,2013-02-16 06:02:00,
2013-02-16 01:11:00,29.0,25.0,29.94,NNW,338,26.0,37.0,83,0.00,,,0.00,,2013-02-16 06:11:00,
2013-02-16 01:22:00,29.0,25.0,29.94,NNW,329,26.0,41.0,83,0.00,,,0.00,,2013-02-16 06:22:00,
2013-02-16 01:32:00,29.0,24.0,29.94,NW,315,29.0,36.0,82,0.00,,,0.00,,2013-02-16 06:32:00,
2013-02-16 01:42:00,29.0,24.0,29.94,NW,315,29.0,36.0,82,0.00,,,0.00,,2013-02-16 06:42:00,
2013-02-16 01:52:00,29.0,24.0,29.93,NW,324,27.0,39.0,82,0.00,,,0.00,,2013-02-16 06:52:00,
2013-02-16 02:02:00,29.0,25.0,29.93,NNW,344,30.0,39.0,83,0.00,,,0.00,,2013-02-16 07:02:00,
2013-02-16 02:11:00,29.0,25.0,29.93,NNW,344,30.0,39.0,83,0.00,,,0.00,,2013-02-16 07:11:00,
2013-02-16 02:21:00,28.0,22.0,29.93,NW,322,28.0,39.0,79,0.00,,,0.00,,2013-02-16 07:21:00,
2013-02-16 02:32:00,28.0,21.0,29.93,NNW,338,29.0,40.0,76,0.00,,,0.00,,2013-02-16 07:32:00,
2013-02-16 02:42:00,28.0,21.0,29.93,NNW,338,29.0,40.0,76,0.00,,,0.00,,2013-02-16 07:42:00,
2013-02-16 02:53:00,28.0,21.0,29.92,NW,323,29.0,37.0,76,0.00,,,0.00,,2013-02-16 07:53:00,
2013-02-16 03:01:00,28.0,22.0,29.91,NNW,327,29.0,41.0,77,0.00,,,0.00,,2013-02-16 08:01:00,
2013-02-16 03:11:00,28.0,22.0,29.91,NNW,327,29.0,41.0,77,0.00,,,0.00,,2013-02-16 08:11:00,
2013-02-16 03:21:00,28.0,22.0,29.91,NNW,335,27.0,37.0,77,0.00,,,0.00,,2013-02-16 08:21:00,
2013-02-16 03:31:00,28.0,22.0,29.91,North,351,27.0,37.0,78,0.00,,,0.00,,2013-02-16 08:31:00,
2013-02-16 03:42:00,28.0,22.0,29.91,North,351,27.0,37.0,78,0.00,,,0.00,,2013-02-16 08:42:00,
2013-02-16 03:52:00,28.0,22.0,29.91,NW,326,25.0,35.0,78,0.00,,,0.00,,2013-02-16 08:52:00,
2013-02-16 04:02:00,28.0,22.0,29.90,NW,320,22.0,32.0,78,0.00,,,0.00,,2013-02-16 09:02:00,
2013-02-16 04:11:00,28.0,22.0,29.90,NW,320,22.0,32.0,78,0.00,,,0.00,,2013-02-16 09:11:00,
2013-02-16 04:21:00,28.0,21.0,29.90,NNW,342,25.0,32.0,76,0.00,,,0.00,,2013-02-16 09:21:00,
2013-02-16 04:32:00,28.0,22.0,29.90,North,356,24.0,33.0,78,0.00,,,0.00,,2013-02-16 09:32:00,
2013-02-16 04:42:00,28.0,22.0,29.90,North,356,24.0,33.0,78,0.00,,,0.00,,2013-02-16 09:42:00,
2013-02-16 04:52:00,28.0,22.0,29.90,NW,317,24.0,32.0,77,0.00,,,0.00,,2013-02-16 09:52:00,
2013-02-16 05:01:00,27.0,21.0,29.89,NNW,344,24.0,32.0,77,0.00,,,0.00,,2013-02-16 10:01:00,
2013-02-16 05:11:00,27.0,21.0,29.89,NNW,344,24.0,32.0,77,0.00,,,0.00,,2013-02-16 10:11:00,
2013-02-16 10:02:00,27.0,21.0,29.89,North,1,19.0,22.0,79,0.00,,,0.00,,2013-02-16 15:02:00,
2013-02-16 10:11:00,27.0,21.0,29.89,North,1,19.0,22.0,79,0.00,,,0.00,,2013-02-16 15:11:00,
2013-02-16 10:22:00,27.0,22.0,29.88,North,6,15.0,17.0,81,0.00,,,0.00,,2013-02-16 15:22:00,
2013-02-16 10:32:00,27.0,22.0,29.89,North,8,14.0,17.0,81,0.00,,,0.00,,2013-02-16 15:32:00,
2013-02-16 10:42:00,27.0,22.0,29.89,North,8,14.0,17.0,81,0.00,,,0.00,,2013-02-16 15:42:00,
2013-02-16 10:52:00,28.0,22.0,29.88,NNE,22,8.0,11.0,78,0.00,,,0.00,,2013-02-16 15:52:00,
2013-02-16 11:01:00,28.0,21.0,29.88,NNW,346,10.0,14.0,76,0.00,,,0.00,,2013-02-16 16:01:00,
2013-02-16 11:11:00,28.0,21.0,29.88,NNW,346,10.0,14.0,76,0.00,,,0.00,,2013-02-16 16:11:00,
2013-02-16 11:21:00,29.0,22.0,29.88,North,351,3.0,7.0,75,0.00,,,0.00,,2013-02-16 16:21:00,
2013-02-16 11:32:00,29.0,22.0,29.88,NNW,329,7.0,9.0,75,0.00,,,0.00,,2013-02-16 16:32:00,
2013-02-16 11:42:00,29.0,22.0,29.88,NNW,329,7.0,9.0,75,0.00,,,0.00,,2013-02-16 16:42:00,
2013-02-16 11:52:00,29.0,22.0,29.87,ENE,74,2.0,4.0,76,0.00,,,0.00,,2013-02-16 16:52:00,
2013-02-16 12:01:00,29.0,22.0,29.87,NNW,338,2.0,4.0,75,0.00,,,0.00,,2013-02-16 17:01:00,
2013-02-16 12:11:00,29.0,22.0,29.87,NNW,338,2.0,4.0,75,0.00,,,0.00,,2013-02-16 17:11:00,
2013-02-16 12:22:00,28.0,22.0,29.85,North,351,7.0,12.0,77,0.00,,,0.00,,2013-02-16 17:22:00,
2013-02-16 12:32:00,28.0,21.0,29.85,NNW,340,5.0,8.0,76,0.00,,,0.00,,2013-02-16 17:32:00,
2013-02-16 12:42:00,28.0,21.0,29.85,NNW,340,5.0,8.0,76,0.00,,,0.00,,2013-02-16 17:42:00,
2013-02-16 12:52:00,29.0,23.0,29.85,NW,320,5.0,14.0,78,0.00,,,0.00,,2013-02-16 17:52:00,
2013-02-16 13:02:00,28.0,22.0,29.84,NNW,337,9.0,13.0,77,0.00,,,0.00,,2013-02-16 18:02:00,
2013-02-16 13:11:00,28.0,22.0,29.83,North,354,9.0,14.0,78,0.00,,,0.00,,2013-02-16 18:11:00,
2013-02-16 13:21:00,28.0,22.0,29.83,North,354,9.0,14.0,78,0.00,,,0.00,,2013-02-16 18:21:00,
2013-02-16 13:33:00,27.0,23.0,29.83,NW,315,13.0,22.0,83,0.00,,,0.00,,2013-02-16 18:33:00,
2013-02-16 13:42:00,27.0,23.0,29.83,NW,315,13.0,22.0,83,0.00,,,0.00,,2013-02-16 18:42:00,
2013-02-16 13:52:00,26.0,22.0,29.81,NW,311,18.0,27.0,84,0.00,,,0.00,,2013-02-16 18:52:00,
2013-02-16 14:02:00,25.0,22.0,29.81,NNW,340,21.0,28.0,89,0.00,,,0.00,,2013-02-16 19:02:00,
2013-02-16 14:11:00,25.0,22.0,29.81,NNW,340,21.0,28.0,89,0.00,,,0.00,,2013-02-16 19:11:00,
2013-02-16 14:22:00,24.0,21.0,29.80,NW,323,24.0,34.0,88,0.00,,,0.00,,2013-02-16 19:22:00,
2013-02-16 14:32:00,24.0,20.0,29.80,NW,326,21.0,31.0,86,0.00,,,0.00,,2013-02-16 19:32:00,
2013-02-16 14:42:00,24.0,20.0,29.80,NW,326,21.0,31.0,86,0.00,,,0.00,,2013-02-16 19:42:00,
2013-02-16 14:52:00,25.0,19.0,29.79,NNW,330,23.0,30.0,78,0.00,,,0.00,,2013-02-16 19:52:00,
2013-02-16 15:01:00,25.0,18.0,29.78,NNW,335,29.0,38.0,75,0.00,,,0.00,,2013-02-16 20:01:00,
2013-02-16 15:11:00,25.0,18.0,29.78,NNE,15,28.0,39.0,73,0.00,,,0.00,,2013-02-16 20:11:00,
2013-02-16 15:22:00,25.0,18.0,29.78,NNE,15,28.0,39.0,73,0.00,,,0.00,,2013-02-16 20:22:00,
2013-02-16 15:32:00,25.0,17.0,29.78,North,349,33.0,41.0,72,0.00,,,0.00,,2013-02-16 20:32:00,
2013-02-16 15:42:00,25.0,17.0,29.78,North,349,33.0,41.0,72,0.00,,,0.00,,2013-02-16 20:42:00,
2013-02-16 15:52:00,25.0,16.0,29.78,NNW,343,29.0,39.0,69,0.00,,,0.00,,2013-02-16 20:52:00,
2013-02-16 16:02:00,25.0,17.0,29.78,NNW,329,29.0,47.0,70,0.00,,,0.00,,2013-02-16 21:02:00,
2013-02-16 16:11:00,25.0,17.0,29.78,NNW,329,29.0,47.0,70,0.00,,,0.00,,2013-02-16 21:11:00,
2013-02-16 16:21:00,25.0,12.0,29.78,NNW,340,33.0,44.0,57,0.00,,,0.00,,2013-02-16 21:21:00,
2013-02-16 16:32:00,25.0,11.0,29.78,NNW,348,38.0,56.0,55,0.00,,,0.00,,2013-02-16 21:32:00,
2013-02-16 16:42:00,25.0,11.0,29.78,NNW,348,38.0,56.0,55,0.00,,,0.00,,2013-02-16 21:42:00,
2013-02-16 16:52:00,25.0,9.0,29.78,North,349,36.0,58.0,50,0.00,,,0.00,,2013-02-16 21:52:00,
2013-02-16 17:01:00,25.0,10.0,29.79,NNW,337,35.0,51.0,52,0.00,,,0.00,,2013-02-16 22:01:00,
2013-02-16 17:11:00,25.0,10.0,29.79,NNW,337,35.0,51.0,52,0.00,,,0.00,,2013-02-16 22:11:00,
2013-02-16 17:21:00,24.0,10.0,29.78,NW,323,38.0,51.0,54,0.00,,,0.00,,2013-02-16 22:21:00,
2013-02-16 17:32:00,24.0,9.0,29.79,NNW,329,37.0,53.0,53,0.00,,,0.00,,2013-02-16 22:32:00,
2013-02-16 17:42:00,24.0,9.0,29.79,NNW,329,37.0,53.0,53,0.00,,,0.00,,2013-02-16 22:42:00,
2013-02-16 17:52:00,23.0,10.0,29.80,NW,318,35.0,51.0,56,0.00,,,0.00,,2013-02-16 22:52:00,
2013-02-16 18:02:00,23.0,12.0,29.81,NW,313,30.0,50.0,61,0.00,,,0.00,,2013-02-16 23:02:00,
2013-02-16 18:11:00,23.0,12.0,29.81,NW,313,30.0,50.0,61,0.00,,,0.00,,2013-02-16 23:11:00,
2013-02-16 18:21:00,22.0,10.0,29.82,NNW,333,31.0,42.0,60,0.00,,,0.00,,2013-02-16 23:21:00,
2013-02-16 18:32:00,22.0,11.0,29.82,NNW,335,31.0,44.0,61,0.00,,,0.00,,2013-02-16 23:32:00,
2013-02-16 18:42:00,22.0,11.0,29.82,NNW,335,31.0,44.0,61,0.00,,,0.00,,2013-02-16 23:42:00,
2013-02-16 18:52:00,22.0,11.0,29.83,NW,311,25.0,45.0,63,0.00,,,0.00,,2013-02-16 23:52:00,
2013-02-16 19:02:00,22.0,12.0,29.84,NW,323,28.0,43.0,64,0.00,,,0.00,,2013-02-17 00:02:00,
2013-02-16 19:12:00,22.0,12.0,29.84,NW,323,28.0,43.0,64,0.00,,,0.00,,2013-02-17 00:12:00,
2013-02-16 19:22:00,21.0,9.0,29.85,NW,322,27.0,41.0,60,0.00,,,0.00,,2013-02-17 00:22:00,
2013-02-16 19:32:00,21.0,9.0,29.86,NNW,330,23.0,33.0,60,0.00,,,0.00,,2013-02-17 00:32:00,
2013-02-16 19:42:00,21.0,9.0,29.86,NNW,330,23.0,33.0,60,0.00,,,0.00,,2013-02-17 00:42:00,
2013-02-16 19:52:00,21.0,10.0,29.87,NNW,329,24.0,37.0,63,0.00,,,0.00,,2013-02-17 00:52:00,
2013-02-16 20:01:00,21.0,11.0,29.87,NNW,330,30.0,42.0,65,0.00,,,0.00,,2013-02-17 01:01:00,
2013-02-16 20:11:00,21.0,11.0,29.87,NNW,330,30.0,42.0,65,0.00,,,0.00,,2013-02-17 01:11:00,
2013-02-16 20:21:00,20.0,12.0,29.88,NNW,340,24.0,32.0,71,0.00,,,0.00,,2013-02-17 01:21:00,
2013-02-16 20:32:00,20.0,12.0,29.89,WNW,290,22.0,33.0,70,0.00,,,0.00,,2013-02-17 01:32:00,
2013-02-16 20:41:00,20.0,12.0,29.89,WNW,290,22.0,33.0,70,0.00,,,0.00,,2013-02-17 01:41:00,
2013-02-16 20:52:00,20.0,11.0,29.89,NW,304,23.0,43.0,66,0.00,,,0.00,,2013-02-17 01:52:00,
2013-02-16 21:01:00,20.0,10.0,29.89,WNW,293,26.0,37.0,65,0.00,,,0.00,,2013-02-17 02:01:00,
2013-02-16 21:11:00,20.0,10.0,29.89,WNW,293,26.0,37.0,65,0.00,,,0.00,,2013-02-17 02:11:00,
2013-02-16 21:21:00,20.0,11.0,29.90,NW,322,21.0,36.0,67,0.00,,,0.00,,2013-02-17 02:21:00,
2013-02-16 21:32:00,19.0,13.0,29.91,NNW,331,32.0,47.0,77,0.00,,,0.00,,2013-02-17 02:32:00,
2013-02-16 21:42:00,19.0,13.0,29.91,NNW,331,32.0,47.0,77,0.00,,,0.00,,2013-02-17 02:42:00,
2013-02-16 21:52:00,18.0,15.0,29.91,NW,306,29.0,41.0,86,0.00,,,0.00,,2013-02-17 02:52:00,
2013-02-16 22:02:00,18.0,14.0,29.91,NW,304,30.0,43.0,85,0.00,,,0.00,,2013-02-17 03:02:00,
2013-02-16 22:11:00,18.0,14.0,29.91,NW,304,30.0,43.0,85,0.00,,,0.00,,2013-02-17 03:11:00,
2013-02-16 22:21:00,18.0,14.0,29.92,NW,322,26.0,40.0,85,0.00,,,0.00,,2013-02-17 03:21:00,
2013-02-16 22:32:00,18.0,15.0,29.92,NNW,347,21.0,29.0,86,0.00,,,0.00,,2013-02-17 03:32:00,
2013-02-16 22:42:00,18.0,15.0,29.92,NNW,347,21.0,29.0,86,0.00,,,0.00,,2013-02-17 03:42:00,
2013-02-16 22:52:00,18.0,15.0,29.93,NNW,340,15.0,22.0,87,0.00,,,0.00,,2013-02-17 03:52:00,
2013-02-16 23:01:00,18.0,14.0,29.93,WNW,297,11.0,22.0,85,0.00,,,0.00,,2013-02-17 04:01:00,
2013-02-16 23:11:00,18.0,13.0,29.93,NNW,341,22.0,31.0,82,0.00,,,0.00,,2013-02-17 04:11:00,
2013-02-16 23:21:00,18.0,13.0,29.93,NNW,341,22.0,31.0,82,0.00,,,0.00,,2013-02-17 04:21:00,
2013-02-16 23:32:00,17.0,13.0,29.93,NW,312,23.0,34.0,84,0.00,,,0.00,,2013-02-17 04:32:00,
2013-02-16 23:42:00,17.0,13.0,29.93,NW,312,23.0,34.0,84,0.00,,,0.00,,2013-02-17 04:42:00,
2013-02-16 23:52:00,17.0,12.0,29.93,WSW,243,14.0,26.0,79,0.00,,,0.00,,2013-02-17 04:52:00,